TimePST,TemperatureF,Dew PointF,Humidity,Sea Level PressureIn,VisibilityMPH,Wind Direction,Wind SpeedMPH,Gust SpeedMPH,PrecipitationIn,Events,Conditions,WindDirDegrees,DateUTC
12:26 AM,44.6,44.6,100,30.44,1.5,Calm,Calm,-,N/A,,Clear,0,2013-03-01 08:26:00
12:48 AM,44.6,42.8,93,30.44,3.0,Calm,Calm,-,N/A,,Clear,0,2013-03-01 08:48:00
12:54 AM,45.0,43.0,93,30.41,10.0,Calm,Calm,-,N/A,,Clear,0,2013-03-01 08:54:00
1:52 AM,42.8,42.8,100,30.44,10.0,Calm,Calm,-,N/A,,Clear,0,2013-03-01 09:52:00
1:54 AM,42.1,41.0,96,30.42,10.0,Calm,Calm,-,N/A,,Clear,0,2013-03-01 09:54:00
2:54 AM,41.0,41.0,100,30.41,6.0,Calm,Calm,-,N/A,,Clear,0,2013-03-01 10:54:00
3:05 AM,42.8,39.2,87,30.43,1.8,Calm,Calm,-,N/A,,Clear,0,2013-03-01 11:05:00
3:13 AM,42.8,41.0,93,30.43,3.0,Calm,Calm,-,N/A,,Clear,0,2013-03-01 11:13:00
3:22 AM,39.2,39.2,100,30.43,2.5,North,3.5,-,N/A,,Partly Cloudy,10,2013-03-01 11:22:00
3:37 AM,41.0,39.2,93,30.43,10.0,Calm,Calm,-,N/A,,Partly Cloudy,0,2013-03-01 11:37:00
4:00 AM,39.2,37.4,93,30.43,1.8,Calm,Calm,-,N/A,,Clear,0,2013-03-01 12:00:00
4:06 AM,39.2,37.4,93,30.43,2.0,Calm,Calm,-,N/A,,Scattered Clouds,0,2013-03-01 12:06:00
4:10 AM,39.2,37.4,93,30.43,1.0,Calm,Calm,-,N/A,,Mist,0,2013-03-01 12:10:00
4:13 AM,39.2,37.4,93,30.43,0.5,Calm,Calm,-,N/A,Fog,Fog,0,2013-03-01 12:13:00
4:34 AM,39.2,39.2,100,30.43,0.8,Calm,Calm,-,N/A,,Mist,0,2013-03-01 12:34:00
4:42 AM,39.2,37.4,93,30.43,0.5,Calm,Calm,-,N/A,Fog,Fog,0,2013-03-01 12:42:00
4:54 AM,43.0,41.0,93,30.40,0.5,Calm,Calm,-,N/A,Fog,Fog,0,2013-03-01 12:54:00
5:01 AM,39.2,39.2,100,30.42,0.2,NNE,3.5,-,N/A,Fog,Fog,30,2013-03-01 13:01:00
5:11 AM,42.8,41.0,93,30.42,1.0,Calm,Calm,-,N/A,,Mist,0,2013-03-01 13:11:00
5:19 AM,39.2,39.2,100,30.42,0.5,Calm,Calm,-,N/A,Fog,Fog,0,2013-03-01 13:19:00
5:54 AM,42.1,39.9,92,30.40,0.2,NNE,3.5,-,N/A,Fog,Fog,30,2013-03-01 13:54:00
6:54 AM,42.1,41.0,96,30.38,0.2,Calm,Calm,-,N/A,Fog,Fog,0,2013-03-01 14:54:00
9:05 AM,48.2,48.2,100,30.40,1.0,Calm,Calm,-,N/A,,Mist,0,2013-03-01 17:05:00
9:16 AM,51.8,50.0,94,30.40,9.0,Calm,Calm,-,N/A,,Mostly Cloudy,0,2013-03-01 17:16:00
9:30 AM,51.8,50.0,94,30.40,10.0,SSW,5.8,-,N/A,,Partly Cloudy,210,2013-03-01 17:30:00
9:54 AM,53.1,50.0,89,30.38,10.0,SW,3.5,-,N/A,,Clear,220,2013-03-01 17:54:00
11:54 AM,63.0,50.0,63,30.34,10.0,SSW,5.8,-,N/A,,Clear,200,2013-03-01 19:54:00
12:54 PM,66.9,50.0,54,30.30,10.0,Calm,Calm,-,N/A,,Clear,0,2013-03-01 20:54:00
1:54 PM,70.0,52.0,53,30.27,10.0,WSW,5.8,-,N/A,,Clear,250,2013-03-01 21:54:00
2:54 PM,70.0,52.0,53,30.25,10.0,SW,6.9,-,N/A,,Clear,230,2013-03-01 22:54:00
3:54 PM,70.0,50.0,49,30.24,10.0,SW,8.1,-,N/A,,Clear,230,2013-03-01 23:54:00
4:54 PM,68.0,52.0,56,30.22,10.0,SW,4.6,-,N/A,,Clear,220,2013-03-02 00:54:00
6:54 PM,60.1,48.9,67,30.23,10.0,Calm,Calm,-,N/A,,Clear,0,2013-03-02 02:54:00
7:54 PM,52.0,46.0,80,30.24,10.0,Calm,Calm,-,N/A,,Clear,0,2013-03-02 03:54:00
8:54 PM,51.1,45.0,80,30.24,10.0,ESE,4.6,-,N/A,,Clear,120,2013-03-02 04:54:00
9:54 PM,46.0,42.1,86,30.24,10.0,Calm,Calm,-,N/A,,Clear,0,2013-03-02 05:54:00
11:54 PM,46.0,43.0,89,30.23,10.0,Calm,Calm,-,N/A,,Clear,0,2013-03-02 07:54:00